Overview Statistics Trail Chart Weather Telemetry Raw packets
 

This is the latest recevied weather packets stored in our database for station/object EA2FBA-10. If no packets are shown the sender has not sent any weather packets the latest 10 day(s).

<< 11 12 13 14 15 16 17 >>
Time Temp. Humidity Pressure Rain* Wind** Luminosity Snow
1788458168 27.22° C 33% 960.3 hPa - - - -
1788457278 26.67° C 37% 960.2 hPa - - - -
1788457268 26.67° C 37% 960.2 hPa - - - -
1788456406 28.33° C 34% 960.2 hPa - - - -
1788456368 28.33° C 34% 960.2 hPa - - - -
1788455468 28.33° C 34% 960.2 hPa - - - -
1788454578 28.33° C 33% 960.2 hPa - - - -
1788454568 28.33° C 33% 960.2 hPa - - - -
1788453668 28.33° C 34% 960.3 hPa - - - -
1788452768 28.89° C 34% 960.3 hPa - - - -
1788451877 28.89° C 36% 960.2 hPa - - - -
1788451868 28.89° C 36% 960.2 hPa - - - -
1788450977 28.89° C 36% 960.2 hPa - - - -
1788450968 28.89° C 36% 960.2 hPa - - - -
1788450067 28.89° C 34% 960.1 hPa - - - -
1788449167 29.44° C 31% 960.2 hPa - - - -
1788448277 29.44° C 31% 960.3 hPa - - - -
1788448267 29.44° C 31% 960.3 hPa - - - -
1788447377 29.44° C 29% 960.3 hPa - - - -
1788447367 29.44° C 29% 960.3 hPa - - - -
1788446478 29.44° C 27% 960.3 hPa - - - -
1788446467 29.44° C 27% 960.3 hPa - - - -
1788445567 29.44° C 27% 960.4 hPa - - - -
1788444667 29.44° C 30% 960.3 hPa - - - -
1788443767 28.33° C 32% 960.4 hPa - - - -

* Rain since midnight (hover to see other rain measurements)
** Current wind speed in m/s (hover to see current wind gust speed)